Total_Precipitation_Accumulation
1.29 1.23 1.10 0.91 0.81 0.82 0.84 0.82 0.76 0.78 0.74 0.75 0.71 0.75 0.88 0.90 0.90 1.05 1.15 1.17 1.29 1.39 1.38 1.43 1.59 1.72 1.84 1.87 1.86 1.85 1.90 1.85 1.73 1.49 1.16 0.98 1.06 1.07 1.14 1.00 0.99 1.03 0.95
1.00 0.90 0.77 0.64 0.58 0.63 0.64 0.60 0.53 0.54 0.50 0.55 0.59 0.59 0.78 0.94 0.97 1.00 1.01 1.00 1.11 1.21 1.25 1.32 1.38 1.39 1.51 1.64 1.74 1.73 1.80 1.85 1.81 1.70 1.41 1.17 1.14 1.20 1.34 1.34 1.23 1.15 1.12
0.92 0.77 0.70 0.63 0.61 0.60 0.54 0.49 0.41 0.39 0.41 0.44 0.56 0.56 0.62 0.78 0.89 0.90 0.89 0.92 0.97 1.04 1.08 1.14 1.17 1.25 1.37 1.39 1.46 1.56 1.64 1.70 1.79 1.73 1.63 1.50 1.32 1.25 1.31 1.30 1.36 1.50 1.45
1.10 0.90 0.78 0.72 0.62 0.53 0.43 0.40 0.37 0.42 0.46 0.42 0.41 0.44 0.51 0.61 0.73 0.76 0.77 0.80 0.83 0.84 0.95 1.03 1.09 1.12 1.22 1.30 1.31 1.43 1.55 1.64 1.67 1.64 1.57 1.50 1.44 1.40 1.40 1.37 1.43 1.57 1.64
0.81 0.60 0.53 0.51 0.47 0.37 0.33 0.32 0.31 0.31 0.29 0.30 0.27 0.29 0.34 0.42 0.49 0.51 0.60 0.67 0.73 0.77 0.87 0.90 0.93 0.89 0.93 1.00 1.00 1.18 1.35 1.53 1.60 1.63 1.53 1.41 1.36 1.37 1.36 1.37 1.43 1.60 1.63
0.47 0.39 0.35 0.31 0.27 0.26 0.25 0.23 0.20 0.18 0.16 0.19 0.21 0.24 0.27 0.29 0.37 0.37 0.41 0.54 0.64 0.69 0.76 0.78 0.85 0.87 0.82 0.78 0.77 0.86 1.00 1.13 1.31 1.44 1.48 1.39 1.31 1.29 1.37 1.48 1.49 1.57 1.67
0.22 0.19 0.19 0.21 0.18 0.16 0.16 0.16 0.17 0.17 0.14 0.15 0.17 0.22 0.24 0.22 0.25 0.24 0.35 0.56 0.60 0.60 0.59 0.71 0.83 0.88 0.90 0.92 0.81 0.80 0.81 0.85 0.95 1.13 1.27 1.28 1.26 1.27 1.34 1.43 1.49 1.54 1.45
0.17 0.14 0.13 0.16 0.17 0.17 0.18 0.19 0.16 0.13 0.13 0.17 0.18 0.24 0.22 0.16 0.19 0.22 0.30 0.45 0.52 0.50 0.51 0.63 0.78 0.88 0.91 0.94 0.90 0.97 0.93 0.82 0.79 0.86 1.05 1.14 1.15 1.28 1.41 1.52 1.63 1.61 1.55
0.15 0.15 0.14 0.15 0.16 0.15 0.15 0.15 0.14 0.13 0.12 0.16 0.20 0.22 0.19 0.14 0.15 0.21 0.30 0.44 0.51 0.51 0.48 0.56 0.72 0.81 0.92 0.95 0.92 1.02 1.02 0.83 0.75 0.84 0.90 0.96 1.05 1.19 1.38 1.52 1.61 1.62 1.59
0.14 0.16 0.17 0.17 0.16 0.15 0.17 0.18 0.16 0.14 0.14 0.15 0.18 0.19 0.18 0.19 0.18 0.18 0.25 0.34 0.42 0.50 0.50 0.55 0.75 0.82 0.86 0.83 0.85 1.06 1.14 0.99 0.75 0.74 0.81 0.94 1.01 1.15 1.37 1.52 1.74 1.76 1.56
0.13 0.16 0.16 0.14 0.14 0.17 0.19 0.22 0.21 0.18 0.16 0.15 0.16 0.16 0.15 0.15 0.18 0.18 0.24 0.23 0.28 0.33 0.39 0.45 0.48 0.61 0.65 0.71 0.81 0.91 1.01 0.90 0.81 0.89 0.99 1.01 1.08 1.13 1.23 1.35 1.57 1.76 1.70
0.14 0.16 0.15 0.15 0.17 0.19 0.20 0.18 0.17 0.15 0.15 0.14 0.13 0.14 0.14 0.14 0.14 0.17 0.22 0.22 0.24 0.28 0.31 0.36 0.42 0.53 0.57 0.63 0.69 0.73 0.77 0.81 0.87 1.00 1.02 0.94 0.98 1.04 1.05 1.14 1.30 1.44 1.35
0.13 0.15 0.17 0.19 0.21 0.22 0.22 0.19 0.18 0.17 0.16 0.17 0.16 0.17 0.18 0.17 0.15 0.18 0.21 0.22 0.25 0.26 0.28 0.35 0.38 0.45 0.45 0.50 0.58 0.61 0.68 0.88 1.01 0.97 0.95 0.91 0.89 0.91 0.90 1.01 1.21 1.35 1.30
0.14 0.16 0.19 0.21 0.24 0.25 0.23 0.21 0.19 0.18 0.20 0.22 0.22 0.21 0.22 0.23 0.19 0.19 0.21 0.24 0.29 0.30 0.31 0.35 0.37 0.42 0.44 0.46 0.54 0.63 0.74 0.90 1.05 0.92 0.80 0.80 0.81 0.88 0.94 0.93 1.02 1.11 1.25
0.15 0.18 0.21 0.22 0.24 0.25 0.24 0.23 0.24 0.23 0.26 0.28 0.27 0.27 0.26 0.24 0.25 0.28 0.26 0.27 0.31 0.31 0.34 0.42 0.52 0.61 0.61 0.62 0.68 0.72 0.75 0.76 0.82 0.77 0.77 0.82 0.86 0.87 0.91 0.92 0.93 0.94 0.97
0.15 0.17 0.20 0.23 0.24 0.25 0.27 0.27 0.29 0.28 0.29 0.29 0.29 0.27 0.25 0.26 0.30 0.32 0.35 0.34 0.36 0.38 0.45 0.49 0.60 0.74 0.79 0.82 0.82 0.83 0.84 0.80 0.82 0.78 0.81 0.83 0.81 0.79 0.80 0.86 0.94 1.00 0.94
0.16 0.18 0.20 0.20 0.20 0.23 0.26 0.30 0.34 0.33 0.29 0.27 0.28 0.28 0.26 0.27 0.28 0.29 0.32 0.35 0.40 0.48 0.48 0.52 0.70 0.77 0.75 0.78 0.85 0.88 0.82 0.72 0.73 0.75 0.71 0.69 0.68 0.65 0.67 0.71 0.79 0.86 0.87
0.19 0.21 0.23 0.22 0.23 0.26 0.26 0.26 0.30 0.34 0.34 0.28 0.26 0.26 0.26 0.26 0.27 0.28 0.32 0.36 0.42 0.49 0.54 0.71 0.88 0.93 0.87 0.81 0.78 0.74 0.67 0.62 0.61 0.60 0.62 0.62 0.65 0.65 0.65 0.64 0.65 0.68 0.73
0.22 0.22 0.24 0.25 0.25 0.26 0.25 0.24 0.25 0.26 0.28 0.28 0.27 0.27 0.28 0.28 0.29 0.31 0.33 0.35 0.42 0.48 0.58 0.71 0.84 0.93 0.89 0.76 0.67 0.62 0.58 0.57 0.55 0.55 0.59 0.63 0.64 0.65 0.64 0.65 0.64 0.66 0.69
0.20 0.26 0.27 0.26 0.26 0.26 0.28 0.28 0.27 0.27 0.30 0.30 0.30 0.34 0.36 0.33 0.33 0.38 0.41 0.41 0.45 0.49 0.52 0.55 0.58 0.59 0.57 0.56 0.59 0.57 0.55 0.58 0.57 0.57 0.59 0.62 0.65 0.71 0.70 0.66 0.66 0.66 0.66
0.20 0.26 0.28 0.25 0.23 0.26 0.31 0.33 0.31 0.31 0.31 0.30 0.30 0.33 0.36 0.34 0.36 0.41 0.42 0.42 0.47 0.50 0.51 0.50 0.51 0.52 0.52 0.51 0.53 0.53 0.53 0.55 0.57 0.58 0.61 0.64 0.65 0.66 0.69 0.68 0.67 0.67 0.67
0.20 0.24 0.26 0.27 0.28 0.31 0.33 0.34 0.33 0.32 0.31 0.30 0.30 0.32 0.35 0.35 0.38 0.38 0.38 0.41 0.43 0.47 0.48 0.47 0.45 0.48 0.52 0.51 0.53 0.54 0.53 0.53 0.54 0.59 0.64 0.67 0.68 0.66 0.65 0.66 0.66 0.66 0.65
0.22 0.23 0.24 0.29 0.33 0.36 0.37 0.36 0.33 0.31 0.31 0.31 0.33 0.34 0.35 0.36 0.37 0.37 0.38 0.41 0.42 0.44 0.46 0.46 0.44 0.44 0.46 0.45 0.47 0.50 0.51 0.51 0.53 0.60 0.68 0.72 0.74 0.75 0.72 0.68 0.66 0.68 0.67
0.24 0.27 0.28 0.30 0.33 0.34 0.34 0.38 0.39 0.36 0.35 0.34 0.33 0.34 0.37 0.37 0.39 0.40 0.39 0.37 0.38 0.40 0.41 0.42 0.42 0.41 0.44 0.47 0.48 0.48 0.48 0.49 0.52 0.57 0.64 0.71 0.74 0.76 0.80 0.82 0.79 0.76 0.74
0.31 0.32 0.32 0.33 0.33 0.34 0.36 0.38 0.41 0.41 0.39 0.38 0.37 0.37 0.39 0.40 0.40 0.43 0.40 0.39 0.38 0.39 0.43 0.43 0.41 0.40 0.41 0.43 0.45 0.47 0.55 0.56 0.53 0.54 0.58 0.67 0.73 0.74 0.75 0.79 0.84 0.86 0.83
0.37 0.38 0.36 0.36 0.38 0.38 0.39 0.40 0.39 0.39 0.39 0.39 0.39 0.39 0.42 0.45 0.48 0.51 0.50 0.51 0.51 0.49 0.49 0.49 0.47 0.46 0.46 0.45 0.45 0.50 0.54 0.51 0.49 0.52 0.54 0.59 0.66 0.71 0.74 0.77 0.80 0.86 0.91